| time (UTC) | temp F | wind direction | speed MPH | gust MPH | rain 1hr in | rain 24hr in | rain mn in | humidity % | barometer mb |
| 20260901000431 | 67 | 355 | 1.0 | 3.0 | 0.00 | 0.00 | 0.00 | 89 | 1011.4 |
| 20260901000055 | 68 | 355 | 1.0 | 3.0 | 0.00 | 0.00 | 0.00 | 89 | 1011.4 |
| 20260831235411 | 68 | 5 | 1.0 | 4.0 | 0.00 | 0.00 | 0.00 | 89 | 1011.4 |
| 20260831235055 | 68 | 5 | 1.0 | 4.0 | 0.00 | 0.00 | 0.00 | 89 | 1011.5 |
| 20260831234410 | 68 | 0 | 0.0 | 3.0 | 0.00 | 0.00 | 0.00 | 89 | 1011.5 |
| 20260831233406 | 68 | 0 | 0.0 | 0.0 | 0.00 | 0.00 | 0.00 | 89 | 1011.4 |
| 20260831233050 | 68 | 0 | 0.0 | 0.0 | 0.00 | 0.00 | 0.00 | 89 | 1011.4 |
| 20260831232410 | 68 | 0 | 0.0 | 0.0 | 0.00 | 0.00 | 0.00 | 89 | 1011.5 |
| 20260831232047 | 68 | 0 | 0.0 | 0.0 | 0.00 | 0.00 | 0.00 | 89 | 1011.5 |
| 20260831231402 | 68 | 0 | 0.0 | 0.0 | 0.00 | 0.00 | 0.00 | 89 | 1011.6 |
| 20260831231046 | 68 | 0 | 0.0 | 0.0 | 0.00 | 0.00 | 0.00 | 89 | 1011.6 |
| 20260831230041 | 69 | 0 | 0.0 | 0.0 | 0.00 | 0.00 | 0.00 | 88 | 1011.6 |
| 20260831225350 | 69 | 0 | 0.0 | 0.0 | 0.00 | 0.00 | 0.00 | 88 | 1011.6 |
| 20260831225039 | 69 | 0 | 0.0 | 0.0 | 0.00 | 0.00 | 0.00 | 88 | 1011.5 |
| 20260831224342 | 69 | 0 | 0.0 | 0.0 | 0.00 | 0.00 | 0.00 | 88 | 1011.6 |
| 20260831224041 | 69 | 0 | 0.0 | 0.0 | 0.00 | 0.00 | 0.00 | 88 | 1011.7 |
| 20260831223337 | 69 | 0 | 0.0 | 0.0 | 0.00 | 0.00 | 0.00 | 88 | 1011.7 |
| 20260831223035 | 69 | 0 | 0.0 | 0.0 | 0.00 | 0.00 | 0.00 | 88 | 1011.7 |
| 20260831222330 | 69 | 0 | 0.0 | 0.0 | 0.00 | 0.00 | 0.00 | 88 | 1011.7 |
| 20260831222036 | 69 | 0 | 0.0 | 0.0 | 0.00 | 0.00 | 0.00 | 88 | 1011.8 |
| 20260831221331 | 69 | 0 | 0.0 | 0.0 | 0.00 | 0.00 | 0.00 | 88 | 1011.8 |
| 20260831221033 | 69 | 0 | 0.0 | 0.0 | 0.00 | 0.00 | 0.00 | 88 | 1011.8 |
| 20260831220318 | 69 | 0 | 0.0 | 0.0 | 0.00 | 0.00 | 0.00 | 88 | 1011.8 |
| 20260831220029 | 69 | 0 | 0.0 | 0.0 | 0.00 | 0.00 | 0.00 | 88 | 1011.8 |
| 20260831215318 | 69 | 0 | 0.0 | 0.0 | 0.00 | 0.00 | 0.00 | 87 | 1011.9 |
| 20260831214310 | 70 | 0 | 0.0 | 0.0 | 0.00 | 0.00 | 0.00 | 87 | 1011.9 |
| 20260831213305 | 70 | 0 | 0.0 | 2.0 | 0.00 | 0.00 | 0.00 | 87 | 1012.0 |
| 20260831212308 | 70 | 0 | 0.0 | 2.0 | 0.00 | 0.00 | 0.00 | 87 | 1011.9 |
| 20260831212020 | 70 | 0 | 1.0 | 4.0 | 0.00 | 0.00 | 0.00 | 87 | 1011.9 |
| 20260831211257 | 70 | 0 | 1.0 | 5.0 | 0.00 | 0.00 | 0.00 | 87 | 1011.9 |
| 20260831211044 | 70 | 0 | 1.0 | 5.0 | 0.00 | 0.00 | 0.00 | 87 | 1012.0 |
| 20260831210251 | 70 | 338 | 0.0 | 3.0 | 0.00 | 0.00 | 0.00 | 87 | 1012.0 |
| 20260831210015 | 70 | 340 | 1.0 | 5.0 | 0.00 | 0.00 | 0.00 | 87 | 1012.0 |
| 20260831205250 | 70 | 355 | 1.0 | 5.0 | 0.00 | 0.00 | 0.00 | 87 | 1011.9 |
| 20260831205009 | 70 | 10 | 1.0 | 4.0 | 0.00 | 0.00 | 0.00 | 86 | 1011.9 |
| 20260831204245 | 70 | 344 | 0.0 | 3.0 | 0.00 | 0.00 | 0.00 | 86 | 1012.0 |
| 20260831204012 | 71 | 344 | 1.0 | 3.0 | 0.00 | 0.00 | 0.00 | 86 | 1011.9 |
| 20260831203248 | 71 | 344 | 1.0 | 4.0 | 0.00 | 0.00 | 0.00 | 86 | 1012.0 |
| 20260831203011 | 71 | 321 | 1.0 | 4.0 | 0.00 | 0.00 | 0.00 | 86 | 1012.0 |
| 20260831202248 | 71 | 323 | 1.0 | 3.0 | 0.00 | 0.00 | 0.00 | 86 | 1012.0 |
| 20260831202010 | 71 | 330 | 1.0 | 4.0 | 0.00 | 0.00 | 0.00 | 86 | 1012.0 |
| 20260831201252 | 71 | 336 | 2.0 | 6.0 | 0.00 | 0.00 | 0.00 | 85 | 1012.1 |
| 20260831201007 | 71 | 335 | 2.0 | 6.0 | 0.00 | 0.00 | 0.00 | 85 | 1012.0 |
| 20260831200003 | 71 | 322 | 1.0 | 4.0 | 0.00 | 0.00 | 0.00 | 85 | 1012.1 |
| 20260831194232 | 71 | 11 | 1.0 | 4.0 | 0.00 | 0.00 | 0.00 | 85 | 1012.1 |
| 20260831193957 | 71 | 324 | 2.0 | 5.0 | 0.00 | 0.00 | 0.00 | 84 | 1012.0 |
| 20260831193246 | 71 | 298 | 2.0 | 6.0 | 0.00 | 0.00 | 0.00 | 84 | 1012.0 |
| 20260831192223 | 71 | 349 | 2.0 | 8.0 | 0.00 | 0.00 | 0.00 | 84 | 1012.1 |
| 20260831191956 | 71 | 307 | 2.0 | 8.0 | 0.00 | 0.00 | 0.00 | 84 | 1012.2 |
| 20260831191226 | 71 | 342 | 2.0 | 8.0 | 0.00 | 0.00 | 0.00 | 83 | 1012.2 |
| 20260831191008 | 71 | 317 | 2.0 | 8.0 | 0.00 | 0.00 | 0.00 | 83 | 1012.2 |
| 20260831190224 | 71 | 321 | 2.0 | 8.0 | 0.00 | 0.00 | 0.00 | 83 | 1012.2 |
| 20260831185226 | 72 | 9 | 3.0 | 7.0 | 0.00 | 0.00 | 0.00 | 83 | 1012.2 |
| 20260831184950 | 72 | 9 | 2.0 | 6.0 | 0.00 | 0.00 | 0.00 | 83 | 1012.2 |
| 20260831184223 | 72 | 313 | 2.0 | 6.0 | 0.00 | 0.00 | 0.00 | 82 | 1012.1 |
| 20260831183947 | 72 | 355 | 2.0 | 6.0 | 0.00 | 0.00 | 0.00 | 82 | 1012.2 |
| 20260831183223 | 72 | 349 | 3.0 | 8.0 | 0.00 | 0.00 | 0.00 | 82 | 1012.2 |
| 20260831182949 | 72 | 307 | 3.0 | 8.0 | 0.00 | 0.00 | 0.00 | 82 | 1012.4 |
| 20260831182251 | 72 | 322 | 3.0 | 7.0 | 0.00 | 0.00 | 0.00 | 82 | 1012.4 |
| 20260831181944 | 72 | 321 | 3.0 | 9.0 | 0.00 | 0.00 | 0.00 | 81 | 1012.3 |
| 20260831181222 | 72 | 336 | 3.0 | 9.0 | 0.00 | 0.00 | 0.00 | 81 | 1012.3 |
| 20260831180943 | 72 | 288 | 3.0 | 9.0 | 0.00 | 0.00 | 0.00 | 81 | 1012.3 |
| 20260831180220 | 72 | 273 | 2.0 | 9.0 | 0.00 | 0.00 | 0.00 | 81 | 1012.3 |
| 20260831175221 | 72 | 309 | 2.0 | 5.0 | 0.00 | 0.00 | 0.00 | 80 | 1012.2 |
| 20260831173938 | 73 | 342 | 2.0 | 8.0 | 0.00 | 0.00 | 0.00 | 80 | 1012.2 |
| 20260831173223 | 73 | 310 | 4.0 | 10.0 | 0.00 | 0.00 | 0.00 | 80 | 1012.2 |
| 20260831172939 | 73 | 322 | 4.0 | 10.0 | 0.00 | 0.00 | 0.00 | 79 | 1012.1 |
| 20260831172219 | 73 | 323 | 3.0 | 9.0 | 0.00 | 0.00 | 0.00 | 79 | 1012.1 |
| 20260831171941 | 73 | 274 | 3.0 | 9.0 | 0.00 | 0.00 | 0.00 | 79 | 1012.1 |
| 20260831170934 | 73 | 41 | 2.0 | 9.0 | 0.00 | 0.00 | 0.00 | 79 | 1012.0 |
| 20260831165933 | 73 | 326 | 3.0 | 9.0 | 0.00 | 0.00 | 0.00 | 78 | 1012.0 |
| 20260831165219 | 74 | 300 | 3.0 | 10.0 | 0.00 | 0.00 | 0.00 | 78 | 1011.9 |
| 20260831164942 | 74 | 344 | 4.0 | 10.0 | 0.00 | 0.00 | 0.00 | 78 | 1011.8 |
| 20260831164218 | 74 | 344 | 4.0 | 9.0 | 0.00 | 0.00 | 0.00 | 78 | 1011.8 |
| 20260831163221 | 74 | 0 | 4.0 | 10.0 | 0.00 | 0.00 | 0.00 | 78 | 1011.7 |
| 20260831162928 | 74 | 304 | 5.0 | 10.0 | 0.00 | 0.00 | 0.00 | 78 | 1011.7 |
| 20260831162220 | 74 | 21 | 5.0 | 9.0 | 0.00 | 0.00 | 0.00 | 77 | 1011.7 |
| 20260831161929 | 74 | 340 | 4.0 | 10.0 | 0.00 | 0.00 | 0.00 | 77 | 1011.7 |
| 20260831161222 | 74 | 297 | 4.0 | 11.0 | 0.00 | 0.00 | 0.00 | 77 | 1011.7 |
| 20260831160927 | 75 | 317 | 4.0 | 11.0 | 0.00 | 0.00 | 0.00 | 77 | 1011.6 |
| 20260831160217 | 75 | 298 | 4.0 | 11.0 | 0.00 | 0.00 | 0.00 | 76 | 1011.6 |
| 20260831155921 | 75 | 340 | 5.0 | 12.0 | 0.00 | 0.00 | 0.00 | 76 | 1011.5 |
| 20260831155217 | 75 | 333 | 5.0 | 12.0 | 0.00 | 0.00 | 0.00 | 76 | 1011.5 |
| 20260831154923 | 76 | 344 | 5.0 | 12.0 | 0.00 | 0.00 | 0.00 | 75 | 1011.5 |
| 20260831154217 | 76 | 274 | 4.0 | 12.0 | 0.00 | 0.00 | 0.00 | 74 | 1011.6 |
| 20260831153919 | 76 | 295 | 4.0 | 11.0 | 0.00 | 0.00 | 0.00 | 74 | 1011.5 |
| 20260831153216 | 76 | 295 | 4.0 | 11.0 | 0.00 | 0.00 | 0.00 | 74 | 1011.5 |
| 20260831151927 | 78 | 244 | 3.0 | 9.0 | 0.00 | 0.00 | 0.00 | 71 | 1011.4 |
| 20260831151221 | 78 | 319 | 3.0 | 10.0 | 0.00 | 0.00 | 0.00 | 71 | 1011.4 |
| 20260831150914 | 78 | 342 | 3.0 | 10.0 | 0.00 | 0.00 | 0.00 | 71 | 1011.3 |
| 20260831150220 | 78 | 325 | 3.0 | 8.0 | 0.00 | 0.00 | 0.00 | 70 | 1011.3 |
| 20260831145214 | 78 | 288 | 4.0 | 11.0 | 0.00 | 0.00 | 0.00 | 69 | 1011.3 |
| 20260831144909 | 79 | 321 | 4.0 | 10.0 | 0.00 | 0.00 | 0.00 | 69 | 1011.1 |
| 20260831143910 | 79 | 301 | 4.0 | 9.0 | 0.00 | 0.00 | 0.00 | 67 | 1011.1 |
| 20260831143213 | 80 | 290 | 3.0 | 10.0 | 0.00 | 0.00 | 0.00 | 66 | 1011.0 |
| 20260831142912 | 80 | 347 | 4.0 | 10.0 | 0.00 | 0.00 | 0.00 | 66 | 1011.0 |
| 20260831142213 | 80 | 341 | 3.0 | 9.0 | 0.00 | 0.00 | 0.00 | 66 | 1011.1 |
| 20260831141906 | 80 | 317 | 2.0 | 9.0 | 0.00 | 0.00 | 0.00 | 65 | 1011.0 |
| 20260831140208 | 81 | 288 | 4.0 | 11.0 | 0.00 | 0.00 | 0.00 | 62 | 1011.1 |
| 20260831135916 | 81 | 313 | 4.0 | 11.0 | 0.00 | 0.00 | 0.00 | 62 | 1011.0 |
| 20260831135209 | 81 | 335 | 3.0 | 9.0 | 0.00 | 0.00 | 0.00 | 61 | 1011.0 |
| 20260831134906 | 81 | 263 | 2.0 | 8.0 | 0.00 | 0.00 | 0.00 | 59 | 1011.0 |
| 20260831134207 | 81 | 293 | 3.0 | 11.0 | 0.00 | 0.00 | 0.00 | 58 | 1011.1 |
| 20260831133858 | 82 | 314 | 4.0 | 11.0 | 0.00 | 0.00 | 0.00 | 58 | 1011.1 |
| 20260831133208 | 82 | 292 | 4.0 | 11.0 | 0.00 | 0.00 | 0.00 | 58 | 1011.0 |
| 20260831132901 | 82 | 297 | 4.0 | 11.0 | 0.00 | 0.00 | 0.00 | 58 | 1011.0 |
| 20260831131912 | 82 | 280 | 2.0 | 9.0 | 0.00 | 0.00 | 0.00 | 58 | 1011.1 |
| 20260831131207 | 82 | 282 | 3.0 | 9.0 | 0.00 | 0.00 | 0.00 | 57 | 1011.1 |
| 20260831125850 | 82 | 0 | 4.0 | 11.0 | 0.00 | 0.00 | 0.00 | 57 | 1011.0 |
| 20260831124852 | 82 | 249 | 3.0 | 9.0 | 0.00 | 0.00 | 0.00 | 56 | 1011.0 |
| 20260831124206 | 82 | 313 | 3.0 | 9.0 | 0.00 | 0.00 | 0.00 | 56 | 1011.1 |
| 20260831123901 | 82 | 293 | 3.0 | 9.0 | 0.00 | 0.00 | 0.00 | 56 | 1011.1 |
| 20260831123208 | 82 | 300 | 2.0 | 8.0 | 0.00 | 0.00 | 0.00 | 57 | 1011.1 |
| 20260831122853 | 81 | 287 | 2.0 | 8.0 | 0.00 | 0.00 | 0.00 | 57 | 1011.1 |
| 20260831121849 | 81 | 292 | 3.0 | 9.0 | 0.00 | 0.00 | 0.00 | 58 | 1011.1 |
| 20260831121201 | 81 | 250 | 3.0 | 9.0 | 0.00 | 0.00 | 0.00 | 58 | 1011.1 |
| 20260831120206 | 81 | 321 | 2.0 | 9.0 | 0.00 | 0.00 | 0.00 | 59 | 1011.1 |
| 20260831115858 | 81 | 38 | 2.0 | 9.0 | 0.00 | 0.00 | 0.00 | 59 | 1011.1 |
| 20260831115201 | 81 | 288 | 2.0 | 9.0 | 0.00 | 0.00 | 0.00 | 59 | 1011.3 |
| 20260831114200 | 81 | 332 | 2.0 | 7.0 | 0.00 | 0.00 | 0.00 | 61 | 1011.3 |
| 20260831113841 | 81 | 5 | 2.0 | 8.0 | 0.00 | 0.00 | 0.00 | 61 | 1011.3 |
| 20260831113201 | 81 | 332 | 2.0 | 9.0 | 0.00 | 0.00 | 0.00 | 60 | 1011.4 |
| 20260831112854 | 81 | 322 | 2.0 | 9.0 | 0.00 | 0.00 | 0.00 | 60 | 1011.4 |
| 20260831111834 | 81 | 300 | 1.0 | 9.0 | 0.00 | 0.00 | 0.00 | 60 | 1011.5 |
| 20260831111157 | 81 | 285 | 1.0 | 9.0 | 0.00 | 0.00 | 0.00 | 61 | 1011.5 |
| 20260831110847 | 81 | 332 | 1.0 | 9.0 | 0.00 | 0.00 | 0.00 | 61 | 1011.5 |
| 20260831110159 | 81 | 229 | 1.0 | 5.0 | 0.00 | 0.00 | 0.00 | 61 | 1011.5 |
| 20260831105837 | 80 | 309 | 2.0 | 8.0 | 0.00 | 0.00 | 0.00 | 60 | 1011.5 |
| 20260831105154 | 81 | 306 | 2.0 | 8.0 | 0.00 | 0.00 | 0.00 | 60 | 1011.5 |
| 20260831104833 | 81 | 251 | 2.0 | 8.0 | 0.00 | 0.00 | 0.00 | 60 | 1011.5 |
| 20260831104150 | 81 | 328 | 2.0 | 9.0 | 0.00 | 0.00 | 0.00 | 59 | 1011.5 |
| 20260831103830 | 81 | 328 | 2.0 | 9.0 | 0.00 | 0.00 | 0.00 | 60 | 1011.6 |
| 20260831103148 | 81 | 249 | 2.0 | 6.0 | 0.00 | 0.00 | 0.00 | 60 | 1011.5 |
| 20260831102150 | 81 | 304 | 2.0 | 7.0 | 0.00 | 0.00 | 0.00 | 60 | 1011.6 |
| 20260831101828 | 81 | 296 | 2.0 | 8.0 | 0.00 | 0.00 | 0.00 | 61 | 1011.6 |
| 20260831101149 | 81 | 327 | 2.0 | 8.0 | 0.00 | 0.00 | 0.00 | 61 | 1011.6 |
| 20260831100824 | 81 | 309 | 2.0 | 8.0 | 0.00 | 0.00 | 0.00 | 62 | 1011.7 |
| 20260831095822 | 82 | 246 | 2.0 | 8.0 | 0.00 | 0.00 | 0.00 | 59 | 1011.7 |
| 20260831094150 | 81 | 319 | 1.0 | 6.0 | 0.00 | 0.00 | 0.00 | 60 | 1011.7 |
| 20260831093820 | 80 | 273 | 1.0 | 6.0 | 0.00 | 0.00 | 0.00 | 62 | 1011.7 |
| 20260831093147 | 80 | 241 | 2.0 | 9.0 | 0.00 | 0.00 | 0.00 | 62 | 1011.8 |
| 20260831092817 | 79 | 271 | 2.0 | 9.0 | 0.00 | 0.00 | 0.00 | 64 | 1011.8 |
| 20260831091817 | 78 | 312 | 1.0 | 5.0 | 0.00 | 0.00 | 0.00 | 66 | 1011.9 |
| 20260831091148 | 78 | 5 | 2.0 | 9.0 | 0.00 | 0.00 | 0.00 | 66 | 1012.0 |
| 20260831090816 | 77 | 320 | 3.0 | 9.0 | 0.00 | 0.00 | 0.00 | 68 | 1012.0 |
| 20260831090144 | 77 | 0 | 3.0 | 9.0 | 0.00 | 0.00 | 0.00 | 68 | 1012.0 |
| 20260831085813 | 78 | 5 | 3.0 | 9.0 | 0.00 | 0.00 | 0.00 | 69 | 1012.1 |
| 20260831085147 | 78 | 355 | 3.0 | 9.0 | 0.00 | 0.00 | 0.00 | 68 | 1012.1 |
| 20260831084815 | 78 | 347 | 3.0 | 9.0 | 0.00 | 0.00 | 0.00 | 68 | 1012.1 |
| 20260831084145 | 79 | 323 | 2.0 | 8.0 | 0.00 | 0.00 | 0.00 | 66 | 1012.2 |
| 20260831083826 | 79 | 290 | 2.0 | 5.0 | 0.00 | 0.00 | 0.00 | 68 | 1012.1 |
| 20260831083147 | 78 | 338 | 1.0 | 6.0 | 0.00 | 0.00 | 0.00 | 69 | 1012.1 |
| 20260831082810 | 78 | 323 | 2.0 | 7.0 | 0.00 | 0.00 | 0.00 | 68 | 1012.2 |
| 20260831082148 | 78 | 241 | 2.0 | 7.0 | 0.00 | 0.00 | 0.00 | 67 | 1012.3 |
| 20260831081812 | 78 | 277 | 2.0 | 7.0 | 0.00 | 0.00 | 0.00 | 68 | 1012.3 |
| 20260831081142 | 78 | 267 | 1.0 | 4.0 | 0.00 | 0.00 | 0.00 | 69 | 1012.3 |
| 20260831080807 | 77 | 213 | 1.0 | 6.0 | 0.00 | 0.00 | 0.00 | 73 | 1012.3 |
| 20260831075135 | 76 | 298 | 2.0 | 8.0 | 0.00 | 0.00 | 0.00 | 73 | 1012.4 |
| 20260831074802 | 76 | 259 | 2.0 | 8.0 | 0.00 | 0.00 | 0.00 | 74 | 1012.4 |
| 20260831074137 | 76 | 255 | 2.0 | 8.0 | 0.00 | 0.00 | 0.00 | 75 | 1012.4 |
| 20260831073802 | 76 | 243 | 2.0 | 6.0 | 0.00 | 0.00 | 0.00 | 77 | 1012.4 |
| 20260831073136 | 75 | 242 | 2.0 | 6.0 | 0.00 | 0.00 | 0.00 | 77 | 1012.5 |
| 20260831072133 | 75 | 348 | 1.0 | 5.0 | 0.00 | 0.00 | 0.00 | 78 | 1012.5 |
| 20260831071815 | 74 | 325 | 2.0 | 6.0 | 0.00 | 0.00 | 0.00 | 80 | 1012.4 |
| 20260831071131 | 74 | 275 | 2.0 | 8.0 | 0.00 | 0.00 | 0.00 | 80 | 1012.3 |
| 20260831070133 | 73 | 292 | 1.0 | 6.0 | 0.00 | 0.00 | 0.00 | 81 | 1012.4 |
| 20260831065802 | 73 | 243 | 2.0 | 9.0 | 0.00 | 0.00 | 0.00 | 82 | 1012.4 |
| 20260831065134 | 72 | 234 | 3.0 | 9.0 | 0.00 | 0.00 | 0.00 | 83 | 1012.4 |
| 20260831064759 | 72 | 311 | 3.0 | 9.0 | 0.00 | 0.00 | 0.00 | 84 | 1012.3 |
| 20260831064127 | 71 | 285 | 4.0 | 9.0 | 0.00 | 0.00 | 0.00 | 84 | 1012.3 |
| 20260831063809 | 71 | 297 | 3.0 | 8.0 | 0.00 | 0.00 | 0.00 | 85 | 1012.3 |
| 20260831063126 | 71 | 290 | 3.0 | 8.0 | 0.00 | 0.00 | 0.00 | 86 | 1012.2 |
| 20260831062126 | 70 | 0 | 4.0 | 11.0 | 0.00 | 0.00 | 0.00 | 87 | 1012.1 |
| 20260831061753 | 70 | 261 | 4.0 | 11.0 | 0.00 | 0.00 | 0.00 | 88 | 1012.1 |
| 20260831061126 | 70 | 319 | 3.0 | 9.0 | 0.00 | 0.00 | 0.00 | 89 | 1012.1 |
| 20260831060753 | 70 | 292 | 3.0 | 9.0 | 0.00 | 0.00 | 0.00 | 89 | 1012.0 |
| 20260831055750 | 71 | 309 | 1.0 | 5.0 | 0.00 | 0.00 | 0.00 | 90 | 1012.0 |
| 20260831055123 | 71 | 267 | 1.0 | 4.0 | 0.00 | 0.00 | 0.00 | 91 | 1012.0 |
| 20260831054747 | 70 | 228 | 2.0 | 7.0 | 0.00 | 0.00 | 0.00 | 91 | 1011.8 |
| 20260831054126 | 70 | 232 | 1.0 | 7.0 | 0.00 | 0.00 | 0.00 | 91 | 1011.8 |
| 20260831053744 | 70 | 345 | 2.0 | 7.0 | 0.00 | 0.00 | 0.00 | 92 | 1011.8 |
| 20260831052745 | 70 | 309 | 2.0 | 5.0 | 0.00 | 0.00 | 0.00 | 92 | 1011.8 |
| 20260831052124 | 70 | 298 | 1.0 | 7.0 | 0.00 | 0.00 | 0.00 | 92 | 1011.8 |
| 20260831051744 | 70 | 245 | 2.0 | 7.0 | 0.00 | 0.00 | 0.00 | 92 | 1011.8 |
| 20260831051126 | 70 | 287 | 2.0 | 7.0 | 0.00 | 0.00 | 0.00 | 93 | 1011.8 |
| 20260831050741 | 69 | 219 | 2.0 | 6.0 | 0.00 | 0.00 | 0.00 | 93 | 1011.7 |
| 20260831050126 | 69 | 296 | 1.0 | 6.0 | 0.00 | 0.00 | 0.00 | 92 | 1011.8 |
| 20260831045743 | 69 | 263 | 0.0 | 6.0 | 0.00 | 0.00 | 0.00 | 93 | 1011.7 |
| 20260831045124 | 69 | 269 | 0.0 | 2.0 | 0.00 | 0.00 | 0.00 | 93 | 1011.7 |
| 20260831044740 | 69 | 116 | 0.0 | 2.0 | 0.00 | 0.00 | 0.00 | 93 | 1011.7 |
| 20260831043735 | 69 | 223 | 0.0 | 1.0 | 0.00 | 0.00 | 0.00 | 93 | 1011.6 |
| 20260831043118 | 69 | 223 | 0.0 | 1.0 | 0.00 | 0.00 | 0.00 | 93 | 1011.7 |
| 20260831042100 | 69 | 223 | 1.0 | 4.0 | 0.00 | 0.00 | 0.00 | 93 | 1011.5 |
| 20260831041730 | 69 | 300 | 2.0 | 8.0 | 0.00 | 0.00 | 0.00 | 93 | 1011.5 |
| 20260831041058 | 69 | 248 | 2.0 | 8.0 | 0.00 | 0.00 | 0.00 | 93 | 1011.4 |
| 20260831040731 | 69 | 271 | 3.0 | 9.0 | 0.00 | 0.00 | 0.00 | 93 | 1011.3 |
| 20260831040059 | 69 | 326 | 4.0 | 9.0 | 0.00 | 0.00 | 0.00 | 93 | 1011.3 |
| 20260831035728 | 69 | 240 | 4.0 | 9.0 | 0.00 | 0.00 | 0.00 | 93 | 1011.3 |
| 20260831034727 | 69 | 300 | 4.0 | 12.0 | 0.00 | 0.00 | 0.00 | 93 | 1011.1 |
| 20260831034054 | 69 | 281 | 4.0 | 12.0 | 0.00 | 0.00 | 0.00 | 93 | 1011.1 |
| 20260831033723 | 69 | 292 | 4.0 | 10.0 | 0.00 | 0.00 | 0.00 | 93 | 1011.0 |
| 20260831033052 | 69 | 321 | 5.0 | 10.0 | 0.00 | 0.00 | 0.00 | 93 | 1011.0 |
| 20260831032727 | 69 | 278 | 5.0 | 10.0 | 0.00 | 0.00 | 0.00 | 93 | 1011.0 |
| 20260831032050 | 69 | 271 | 4.0 | 10.0 | 0.00 | 0.00 | 0.00 | 93 | 1011.1 |
| 20260831031722 | 69 | 304 | 3.0 | 8.0 | 0.00 | 0.00 | 0.00 | 93 | 1011.1 |
| 20260831030719 | 69 | 249 | 2.0 | 7.0 | 0.00 | 0.00 | 0.00 | 93 | 1011.4 |
| 20260831030038 | 69 | 288 | 3.0 | 8.0 | 0.00 | 0.00 | 0.00 | 93 | 1011.3 |
| 20260831025716 | 69 | 291 | 3.0 | 8.0 | 0.00 | 0.00 | 0.00 | 93 | 1011.3 |
| 20260831025040 | 69 | 327 | 3.0 | 8.0 | 0.00 | 0.00 | 0.00 | 93 | 1011.1 |
| 20260831024717 | 69 | 286 | 2.0 | 8.0 | 0.00 | 0.00 | 0.00 | 93 | 1011.1 |
| 20260831024035 | 69 | 288 | 2.0 | 7.0 | 0.00 | 0.00 | 0.00 | 93 | 1011.1 |
| 20260831023720 | 69 | 257 | 2.0 | 6.0 | 0.00 | 0.00 | 0.00 | 93 | 1011.1 |
| 20260831023038 | 69 | 281 | 3.0 | 8.0 | 0.00 | 0.00 | 0.00 | 92 | 1011.0 |
| 20260831022713 | 69 | 244 | 2.0 | 8.0 | 0.00 | 0.00 | 0.00 | 93 | 1011.0 |
| 20260831022034 | 69 | 284 | 2.0 | 6.0 | 0.00 | 0.00 | 0.00 | 93 | 1011.1 |
| 20260831021716 | 69 | 277 | 2.0 | 6.0 | 0.00 | 0.00 | 0.00 | 93 | 1011.0 |
| 20260831021035 | 69 | 347 | 2.0 | 6.0 | 0.00 | 0.00 | 0.00 | 93 | 1011.1 |
| 20260831020709 | 69 | 295 | 2.0 | 8.0 | 0.00 | 0.00 | 0.00 | 93 | 1011.1 |
| 20260831020038 | 70 | 309 | 2.0 | 8.0 | 0.00 | 0.00 | 0.00 | 92 | 1011.1 |
| 20260831015708 | 70 | 266 | 2.0 | 6.0 | 0.00 | 0.00 | 0.00 | 92 | 1011.1 |
| 20260831014703 | 70 | 325 | 2.0 | 7.0 | 0.00 | 0.00 | 0.00 | 92 | 1011.0 |
| 20260831013706 | 69 | 319 | 2.0 | 7.0 | 0.00 | 0.00 | 0.00 | 93 | 1010.9 |
| 20260831012703 | 69 | 306 | 2.0 | 7.0 | 0.00 | 0.00 | 0.00 | 92 | 1010.9 |
| 20260831012024 | 69 | 258 | 2.0 | 6.0 | 0.00 | 0.00 | 0.00 | 92 | 1010.9 |
| 20260831011700 | 69 | 265 | 2.0 | 7.0 | 0.00 | 0.00 | 0.00 | 92 | 1010.9 |
| 20260831011024 | 69 | 312 | 3.0 | 9.0 | 0.00 | 0.00 | 0.00 | 92 | 1010.9 |
| 20260831010654 | 69 | 281 | 3.0 | 9.0 | 0.00 | 0.00 | 0.00 | 92 | 1010.8 |
| 20260831010022 | 70 | 286 | 3.0 | 7.0 | 0.00 | 0.00 | 0.00 | 92 | 1010.9 |
| 20260831005012 | 70 | 319 | 3.0 | 7.0 | 0.00 | 0.00 | 0.00 | 92 | 1010.8 |
| 20260831004010 | 70 | 277 | 3.0 | 8.0 | 0.00 | 0.00 | 0.00 | 92 | 1010.8 |
| 20260831001648 | 70 | 324 | 2.0 | 9.0 | 0.00 | 0.00 | 0.00 | 92 | 1010.8 |
| 20260831000645 | 70 | 299 | 3.0 | 8.0 | 0.00 | 0.00 | 0.00 | 92 | 1010.8 |